GFSCGP_925_spd_132.txt.gz
Wind_Speed
2 4 5 5 5 4 4 4 6 4 6 7 4 3 7 12 5 11 13 13 12 14 14 18 21 25 23 23 25 22 22 18 18 16 19 18 16 14 10 8 7 6 3 5
6 2 5 3 4 2 3 6 3 2 3 3 4 3 4 11 5 6 16 13 16 8 8 16 20 22 26 26 27 24 24 21 18 16 18 18 17 14 15 11 8 6 6 5
5 2 7 3 3 5 3 5 4 4 3 2 4 2 5 6 4 7 6 16 14 17 14 12 19 23 25 28 30 30 27 24 19 18 18 16 17 11 11 11 11 10 9 6
2 2 3 3 3 5 4 5 9 10 2 1 5 4 4 9 10 7 6 10 14 16 13 11 18 21 26 29 29 30 26 26 22 20 19 21 20 15 14 13 12 11 9 8
6 3 4 3 7 8 4 9 8 3 4 2 3 3 5 9 9 12 8 10 13 15 16 16 21 25 29 26 30 29 26 28 24 22 18 21 19 18 17 14 11 10 8 7
7 2 4 5 1 6 12 8 7 5 3 2 1 7 4 6 16 20 6 9 12 12 14 16 19 17 19 22 28 30 28 29 24 23 21 20 20 20 18 18 15 11 10 8
5 2 1 5 8 7 6 6 3 3 2 0 4 3 9 9 7 20 16 13 11 14 14 12 15 20 21 26 30 32 30 30 27 24 23 22 20 21 19 20 18 14 12 11
2 4 7 6 7 8 6 6 5 6 5 3 2 5 5 4 5 16 17 15 13 14 15 17 23 25 26 27 30 31 33 32 28 25 23 22 22 22 19 19 18 17 14 14
2 4 4 5 4 10 5 4 4 6 3 3 1 5 6 7 13 8 16 16 17 15 18 19 24 26 25 27 31 35 34 34 31 27 24 24 23 23 22 19 18 20 17 15
3 2 3 5 3 2 7 6 1 2 4 2 3 3 5 10 13 8 13 19 19 18 18 17 23 28 28 29 32 33 35 36 33 28 25 25 24 24 21 19 18 19 18 16
2 2 6 2 4 2 1 1 2 3 3 5 3 5 4 4 10 9 10 13 16 16 17 18 22 28 29 28 30 33 33 34 32 29 26 23 22 23 21 20 17 15 16 16
1 4 2 4 3 4 1 1 4 4 3 2 3 4 7 7 2 3 0 6 8 14 17 17 24 26 25 28 28 30 32 32 32 29 27 25 21 21 21 18 17 17 18 16
2 1 3 6 6 3 5 3 1 2 3 5 4 4 4 5 6 5 2 3 5 10 11 11 13 22 24 27 30 32 34 35 33 30 29 27 23 21 21 19 16 16 18 18
5 2 5 5 5 2 1 4 2 2 3 3 3 2 2 5 5 6 5 5 1 8 10 8 9 16 24 26 29 29 32 34 34 31 29 29 27 25 22 20 17 14 15 17
4 1 2 5 4 1 1 1 4 2 2 4 2 3 3 3 4 4 4 5 3 4 9 11 10 9 18 23 26 29 31 33 34 32 30 30 27 25 22 20 18 16 15 17
2 1 2 2 2 5 1 1 6 4 3 4 3 2 1 3 2 5 7 6 4 4 3 7 7 10 16 22 26 29 30 32 34 33 32 28 25 24 23 20 19 17 16 16
1 3 2 4 3 5 5 2 1 4 1 3 3 3 3 3 3 4 5 6 6 4 6 7 3 4 7 15 18 19 19 26 26 28 28 25 22 21 20 17 16 14 12 15
4 3 2 3 3 2 3 3 3 3 4 2 4 3 5 5 5 4 6 6 6 6 6 7 10 11 9 10 9 12 15 17 18 19 18 12 7 12 14 14 13 10 8 9
2 4 2 3 2 4 2 4 4 4 3 4 7 7 6 6 2 4 8 6 5 6 8 6 8 13 16 17 18 20 19 17 15 13 10 9 10 10 13 13 13 9 9 9
4 4 4 1 3 6 5 2 3 3 2 8 7 9 8 4 1 0 4 6 7 9 9 7 10 12 17 18 18 17 14 11 3 3 6 8 12 12 12 12 11 11 12 12
3 3 3 3 3 6 4 4 3 3 5 5 6 6 6 3 2 2 3 6 8 9 10 9 13 12 8 5 6 8 9 16 11 10 12 10 8 12 13 11 10 13 12 13
5 4 3 3 2 5 2 3 6 5 3 4 3 3 7 9 7 6 6 7 9 10 12 12 14 13 7 5 7 10 7 7 11 9 9 7 7 10 10 9 11 10 10 12
2 5 3 7 5 4 4 4 5 4 3 3 5 8 6 6 7 6 5 7 10 11 11 14 15 16 16 10 7 10 6 8 8 7 9 11 12 13 10 10 12 12 9 11
3 4 2 1 2 4 2 4 3 3 3 7 6 9 7 8 7 9 4 5 8 11 12 12 17 17 17 17 17 12 8 8 12 13 11 11 11 13 11 11 10 10 10 8
4 5 5 3 4 3 3 3 2 2 5 10 6 4 5 9 7 7 2 4 8 11 10 11 15 16 15 13 13 13 13 12 15 15 13 11 11 12 12 11 9 8 6 4
5 7 5 6 8 5 6 5 3 6 6 6 11 6 5 6 7 8 6 6 6 8 9 9 10 13 12 12 12 11 10 10 13 14 12 11 11 12 11 11 11 9 6 4

GFSCGP_925_spd_135.txt.gz
Wind_Speed
2 4 5 5 2 6 7 10 10 5 2 6 5 2 10 13 6 12 15 16 16 17 17 17 17 17 17 17 16 16 14 14 16 13 12 9 8 8 7 7 9 5 3 4
4 3 3 4 5 3 6 7 6 4 3 3 6 7 9 8 12 10 15 17 18 15 13 16 19 17 18 18 18 17 15 17 16 15 16 12 11 9 7 7 7 6 4 3
6 2 6 4 7 6 5 4 8 5 7 6 0 4 5 10 10 7 10 18 19 18 17 16 20 20 18 20 20 19 17 19 16 14 16 16 14 10 8 8 7 7 6 4
2 3 5 5 7 7 7 6 9 10 4 3 2 3 4 9 15 14 13 15 19 19 17 15 20 21 22 21 20 20 19 20 18 17 15 18 16 12 11 9 8 8 8 6
1 4 5 5 6 10 1 10 9 6 5 4 2 2 1 7 12 18 19 13 20 20 18 19 22 24 23 19 20 21 21 21 19 19 18 15 14 13 11 10 10 10 9 7
4 0 3 1 5 9 14 13 8 4 2 2 2 1 5 7 18 19 17 16 20 20 19 20 19 19 20 18 19 20 22 24 23 21 20 19 19 16 13 13 11 10 8 8
2 1 1 4 11 10 6 11 2 2 2 1 4 4 10 8 11 15 22 25 19 18 17 16 18 21 21 22 21 20 22 21 25 23 20 18 20 19 18 17 15 12 11 10
2 4 9 8 3 6 13 7 4 4 4 3 4 5 3 5 8 13 17 25 13 17 16 18 24 25 25 24 23 22 22 22 23 22 23 21 20 16 16 16 15 14 12 12
1 1 2 6 5 10 6 8 2 3 2 2 4 4 3 3 14 7 12 19 20 18 19 20 24 25 24 23 25 25 24 23 23 23 22 22 21 20 17 18 18 14 15 12
1 3 3 3 6 6 7 10 4 3 4 4 2 4 5 9 11 7 12 16 22 20 20 19 22 26 27 26 24 23 23 24 24 22 21 19 19 22 21 19 18 17 18 18
1 3 0 4 2 6 6 5 3 2 2 2 2 4 2 8 12 6 7 15 18 21 19 15 22 27 28 24 24 23 22 22 23 23 21 20 18 19 19 18 18 17 16 18
2 1 4 2 2 2 2 2 6 7 6 1 2 2 4 5 6 2 8 10 13 18 21 18 24 25 25 25 24 25 23 23 23 23 22 21 18 18 16 18 19 18 16 15
2 0 3 3 4 4 1 2 2 1 1 6 5 3 3 5 5 6 5 3 5 15 20 20 19 23 23 27 26 26 25 25 23 22 21 20 20 19 19 17 16 16 16 17
2 1 3 6 4 4 3 1 2 3 3 4 6 6 3 2 5 7 7 8 5 8 15 19 18 19 23 25 28 27 25 24 23 22 22 22 23 22 20 21 20 17 15 16
1 4 3 6 8 6 5 3 2 4 2 4 1 5 2 2 5 9 8 10 6 5 11 12 16 16 20 20 23 22 22 24 22 21 22 23 21 22 22 21 19 18 16 15
1 1 1 5 4 5 5 4 5 2 3 4 4 6 0 3 3 6 8 10 6 1 7 10 11 10 14 18 23 21 20 21 22 25 21 19 19 20 21 21 20 17 15 15
0 1 2 4 2 3 7 7 6 3 3 3 5 0 3 2 3 4 6 7 7 3 4 4 7 12 15 18 17 16 19 17 17 21 18 17 16 16 16 15 16 15 14 13
2 2 1 4 2 7 2 1 3 7 3 7 5 6 4 3 6 6 6 6 6 6 5 4 6 7 7 9 11 12 12 11 12 12 14 16 17 14 15 13 13 12 10 7
1 2 2 3 4 4 3 6 6 6 3 7 5 7 9 6 3 2 5 5 5 5 5 5 6 6 7 8 9 9 10 11 11 12 11 9 11 12 10 13 10 10 10 9
4 1 4 2 4 5 1 2 2 3 6 13 10 10 10 7 3 2 4 5 6 8 8 8 10 14 14 12 11 14 14 15 12 13 11 9 9 10 10 11 12 13 12 10
2 1 6 6 6 5 2 2 1 6 2 4 10 8 10 4 2 5 4 5 6 7 8 7 10 13 12 10 10 11 10 9 6 7 7 7 8 10 15 17 16 14 13 12
3 3 2 1 4 8 2 4 5 4 5 2 4 5 7 10 7 6 7 5 8 9 9 10 13 13 9 7 7 8 9 7 9 13 12 8 6 7 7 6 5 12 13 10
3 3 0 5 2 1 4 8 4 1 3 3 6 8 13 11 10 8 7 8 10 9 9 12 15 15 12 10 12 14 10 12 12 13 11 9 8 10 10 9 8 6 6 8
6 4 3 2 2 8 6 6 7 3 6 8 9 11 10 10 10 10 8 8 12 11 9 11 14 14 15 15 14 13 13 13 15 15 12 12 13 12 12 12 10 11 8 7
1 9 5 5 8 5 7 6 3 6 10 13 12 12 12 12 9 8 7 8 12 12 10 10 12 14 13 14 14 15 15 11 15 15 14 12 13 12 13 14 11 8 7 6
7 6 5 4 6 2 6 7 8 9 11 13 13 11 12 13 12 12 8 9 12 12 10 10 12 13 13 13 15 16 14 14 16 18 15 15 15 14 14 15 14 11 9 7

GFSCGP_925_spd_138.txt.gz
Wind_Speed
10 9 11 12 5 4 2 7 10 10 9 5 6 8 6 8 9 14 14 17 16 15 16 17 16 16 16 16 16 15 13 13 14 13 12 11 11 8 7 6 7 5 4 3
9 12 6 3 6 3 4 3 10 8 4 3 8 6 9 11 8 12 17 15 15 16 15 16 17 17 18 17 17 17 15 15 15 14 12 11 11 9 8 8 6 5 4 3
10 6 7 9 9 9 7 4 6 4 7 4 3 8 8 5 9 14 16 17 16 16 16 16 18 18 18 19 18 18 18 15 16 13 14 10 10 9 9 9 8 7 5 4
5 6 9 8 9 9 11 5 4 7 9 5 3 2 1 12 15 17 19 16 16 17 17 17 20 20 20 19 19 18 18 16 14 14 14 15 14 12 10 11 9 8 7 5
7 10 8 9 11 7 5 4 6 5 3 6 1 5 7 7 10 17 19 19 17 19 19 17 20 22 20 19 20 20 19 17 15 14 13 15 13 10 10 10 9 8 7 6
1 2 5 3 3 9 4 6 5 6 5 8 1 7 2 7 14 18 16 23 19 17 18 18 21 21 21 20 19 19 20 20 19 14 14 15 13 11 12 12 11 10 9 8
7 11 6 7 7 9 13 13 7 7 7 4 3 6 5 1 7 17 23 23 24 19 18 17 16 19 21 22 21 20 20 21 20 17 16 16 14 14 12 12 12 10 10 9
3 10 12 10 11 8 14 14 7 7 4 3 4 4 4 4 6 14 11 21 19 23 20 17 19 22 23 22 22 21 21 21 20 19 17 14 13 15 16 16 13 13 11 9
3 4 5 5 5 11 11 9 11 8 6 5 3 6 9 2 8 8 9 17 20 23 21 19 22 23 23 23 23 23 22 21 20 21 19 16 15 15 14 12 14 14 11 8
4 5 6 8 7 9 12 6 9 9 5 5 5 3 6 6 4 8 8 12 21 25 22 20 20 22 23 24 23 21 22 22 21 21 20 18 17 16 15 12 13 12 11 12
7 6 9 5 9 6 8 11 12 6 8 1 4 4 6 1 2 3 6 9 11 20 17 17 20 22 23 24 24 23 22 21 22 22 21 20 18 17 16 15 16 15 13 14
4 6 8 6 6 5 12 11 15 9 10 5 5 0 4 4 1 7 10 5 2 12 18 14 21 23 22 23 23 24 23 23 23 22 22 20 19 17 17 17 16 15 15 12
4 4 8 13 10 8 8 7 11 11 15 10 6 1 4 7 7 4 6 5 7 9 10 11 9 20 22 24 24 24 23 23 22 22 22 21 20 19 19 18 18 17 15 14
3 8 8 12 7 8 4 8 7 13 11 11 9 13 5 4 8 6 4 6 6 13 15 10 19 19 23 23 25 25 23 22 21 21 21 22 22 21 19 17 17 16 15 14
5 10 6 12 10 9 10 10 7 12 10 9 4 8 5 3 1 4 3 4 3 8 11 13 17 19 23 22 22 23 22 22 21 21 20 20 18 18 18 17 16 16 16 14
3 7 7 12 11 11 13 12 10 9 7 11 6 9 2 2 4 2 5 7 7 2 6 8 14 13 18 19 18 19 19 20 19 19 19 18 17 17 18 17 16 16 16 14
6 8 6 10 3 8 11 15 13 12 6 9 10 6 4 4 3 3 4 7 7 9 2 5 8 8 10 15 14 18 15 15 17 14 13 13 15 17 18 17 17 17 17 15
8 7 6 9 5 11 2 5 6 9 9 8 11 5 3 4 5 4 4 5 5 6 8 3 4 9 5 11 15 11 12 13 14 13 14 11 14 17 13 17 18 17 16 15
4 7 7 7 10 8 7 5 7 9 12 7 7 3 3 3 5 3 4 5 4 5 6 5 5 8 9 5 7 9 6 10 5 10 10 14 15 15 14 15 14 10 9 9
3 5 7 8 7 8 5 7 1 4 11 10 5 4 5 4 7 6 5 4 4 6 6 8 12 14 13 12 14 16 15 13 13 11 10 9 9 9 8 13 17 15 12 9
5 5 8 8 7 8 4 2 2 7 2 5 6 6 7 5 6 5 5 4 4 5 6 11 13 14 13 14 19 18 19 14 11 10 9 7 5 4 4 10 10 11 14 13
5 4 5 2 5 9 4 3 8 5 2 6 7 6 5 7 6 6 3 4 7 6 8 9 11 12 12 10 13 15 13 11 11 12 10 8 7 7 9 1 4 6 15 13
6 5 5 3 6 2 1 7 3 6 6 1 6 5 8 9 9 6 4 4 7 8 9 9 12 12 12 12 12 14 14 16 14 11 11 11 9 10 11 9 9 12 11 10
7 4 5 3 5 6 6 9 9 11 8 4 5 11 11 9 9 8 6 6 8 10 11 12 14 14 15 11 11 12 13 11 11 11 8 9 10 12 11 11 9 10 9 10
4 8 8 9 12 6 9 7 5 8 7 6 9 10 10 11 11 9 7 7 9 11 13 13 13 14 14 15 14 11 12 12 12 13 12 13 13 14 13 11 8 8 8 7
7 10 8 8 6 4 3 5 4 5 8 8 9 11 12 12 11 11 9 9 9 11 12 14 15 16 14 14 15 14 13 15 20 19 15 15 15 15 14 13 12 10 8 7

GFSCGP_925_spd_141.txt.gz
Wind_Speed
14 12 13 16 7 4 9 8 11 11 11 13 7 5 12 7 13 11 6 13 16 16 15 18 18 20 18 18 17 15 13 16 15 13 13 12 13 9 8 10 8 7 6 4
10 13 15 5 2 7 12 4 11 9 13 11 10 6 12 8 9 11 17 9 12 17 4 19 19 16 19 19 16 16 13 14 14 13 12 11 11 10 8 10 9 6 7 5
13 10 9 3 7 11 11 3 6 12 7 4 9 10 15 13 10 15 21 14 13 11 21 13 19 20 16 25 22 19 16 16 15 12 10 5 7 7 7 11 9 8 6 5
10 9 1 12 13 11 14 3 2 1 12 5 18 1 16 18 18 17 22 12 20 28 19 18 22 17 20 20 17 19 18 17 15 14 15 10 10 11 11 11 11 11 7 6
5 4 10 12 11 7 1 4 7 2 12 11 7 10 13 18 14 18 25 25 15 16 15 19 21 24 20 24 21 20 20 17 16 15 8 15 17 10 10 10 12 4 9 6
5 3 8 10 5 7 10 5 7 8 11 12 3 5 9 14 18 20 16 23 19 18 17 19 12 24 22 22 23 21 20 18 17 15 11 14 14 9 11 12 9 11 11 9
8 11 10 6 11 10 13 16 10 10 9 4 4 7 3 11 17 22 25 25 22 21 16 11 16 20 22 21 25 21 22 21 20 16 15 13 10 9 7 9 12 11 12 11
8 12 13 11 17 7 12 19 10 1 6 6 7 2 3 3 9 18 18 22 24 21 17 8 21 21 26 24 21 20 23 21 21 19 17 14 13 12 11 10 11 11 9 9
3 6 8 7 10 11 5 14 19 6 12 4 9 4 8 5 10 20 18 21 20 22 21 12 21 27 22 21 22 21 21 21 22 22 19 16 15 14 13 12 14 11 9 6
3 9 9 12 10 12 13 14 9 7 5 7 3 5 10 6 6 11 11 10 13 21 21 22 19 23 22 22 23 21 21 22 22 21 21 20 18 16 14 9 9 11 7 12
13 10 2 5 11 14 5 13 19 2 6 2 5 7 9 7 5 10 5 6 11 16 25 23 12 25 25 22 24 23 22 21 21 21 20 19 19 18 16 14 13 13 11 8
8 9 8 13 7 12 11 14 27 12 18 4 8 7 9 4 5 9 8 6 3 7 23 15 20 24 25 18 25 23 23 22 21 21 20 20 18 17 17 17 16 15 15 13
11 8 11 14 16 17 10 17 11 2 4 6 1 2 6 7 5 11 14 7 5 2 7 10 14 15 21 24 20 23 23 23 22 21 22 21 20 19 18 17 17 17 16 15
6 13 14 11 3 10 14 16 26 11 7 16 13 10 15 11 7 5 9 10 3 5 3 8 10 12 18 25 23 22 23 23 22 21 20 21 21 20 18 18 17 17 17 16
7 11 12 15 14 14 14 11 20 22 14 13 11 15 3 13 11 6 6 5 5 4 7 8 7 14 14 14 21 23 24 23 22 21 20 19 18 18 17 16 16 16 17 17
4 8 8 12 16 16 19 18 17 11 20 11 21 14 6 13 8 8 3 4 5 8 9 16 12 13 17 22 21 22 23 23 22 21 20 18 17 16 16 16 16 15 16 16
4 8 10 13 14 9 12 16 20 17 16 7 17 4 16 7 8 6 4 3 2 2 6 12 13 15 13 26 20 19 21 21 21 20 19 18 17 17 16 16 17 18 18 18
8 9 8 10 11 13 11 9 10 20 12 6 14 17 9 8 8 6 3 5 3 3 5 10 6 10 12 12 11 15 17 19 16 13 14 12 12 13 12 15 19 19 19 17
4 8 9 10 11 12 9 7 11 14 15 16 20 23 10 3 4 7 4 3 5 1 5 8 2 7 7 12 16 14 14 15 15 17 14 15 14 11 13 18 18 20 17 15
4 5 8 11 7 12 9 4 9 8 12 14 6 12 8 3 7 7 5 4 6 3 4 2 5 8 15 13 18 18 14 15 15 9 7 5 5 4 7 3 4 6 6 11
9 8 11 10 10 6 9 3 5 6 3 11 15 5 9 2 6 6 4 5 4 4 5 7 9 9 5 15 18 17 12 10 13 13 13 9 6 2 3 3 4 2 5 9
7 8 9 8 7 8 6 3 7 7 9 7 12 8 12 10 8 7 6 6 4 5 5 5 11 12 11 9 17 17 16 13 15 13 12 8 7 4 4 4 2 5 11 10
7 8 8 7 6 4 3 8 7 7 7 8 9 6 9 14 10 7 8 4 4 5 5 6 11 12 13 12 14 15 14 15 16 16 14 14 13 13 10 11 11 13 12 14
12 10 6 10 11 10 5 7 9 11 10 10 1 1 4 8 11 9 8 8 7 7 9 7 13 13 12 14 13 16 13 15 14 14 13 12 14 12 10 10 11 12 11 9
5 5 6 9 14 14 11 8 8 7 9 9 3 8 8 7 4 7 9 8 11 9 10 13 13 14 13 12 13 14 13 14 15 14 12 12 11 12 13 12 10 8 8 8
9 10 10 10 7 3 5 3 2 7 6 10 4 5 8 13 11 11 10 11 10 11 12 14 14 14 14 17 15 13 12 12 15 14 12 10 10 10 10 11 12 10 8 6

GFSCGP_925_spd_147.txt.gz
Wind_Speed
7 3 7 14 11 3 11 10 6 6 5 3 9 5 13 11 3 4 2 3 1 9 16 15 16 30 29 26 19 20 28 20 18 11 9 7 11 5 8 19 12 14 9 9
3 8 14 14 7 13 14 12 5 4 6 6 6 7 10 7 4 6 6 5 0 4 5 3 17 29 30 27 23 22 24 20 17 14 10 10 5 12 11 12 12 10 9 6
9 10 16 14 2 10 15 10 7 7 4 9 8 3 7 7 12 16 14 8 9 7 4 3 1 12 27 30 27 24 24 20 18 11 10 6 12 16 13 12 10 7 10 7
7 6 2 7 7 7 6 20 18 14 10 5 18 3 10 12 11 12 11 13 13 11 7 7 3 20 25 28 28 28 27 23 21 13 10 13 10 10 12 14 12 10 8 7
7 1 5 4 8 8 5 8 4 8 10 5 18 4 4 10 12 17 19 15 14 12 10 8 8 7 12 30 30 30 26 23 24 17 13 14 13 10 3 15 15 14 10 8
8 4 2 6 9 7 7 6 3 2 1 2 5 6 4 9 19 13 15 15 15 12 13 11 11 7 10 22 26 30 27 23 23 19 16 15 11 6 3 16 19 16 13 14
9 11 4 4 6 5 4 5 4 5 5 2 8 8 7 18 11 15 15 17 13 13 12 10 6 9 20 24 28 30 29 25 23 19 19 18 13 8 9 14 14 15 14 16
5 2 8 6 5 5 5 7 5 4 2 2 6 4 3 10 13 10 13 16 14 13 12 15 17 22 12 20 28 26 32 29 25 22 19 17 16 13 11 19 13 11 8 17
5 8 7 10 5 7 7 3 1 5 2 1 2 7 2 19 20 7 9 13 17 16 17 18 21 24 21 20 23 28 32 31 30 27 23 20 19 17 20 13 12 8 3 5
6 5 7 2 5 5 4 1 5 4 3 1 8 4 4 9 14 17 14 10 16 16 18 15 16 25 30 34 30 18 33 35 33 29 27 25 20 18 17 11 9 10 10 13
4 2 9 6 4 7 2 2 3 6 3 4 3 5 7 7 8 13 16 10 13 14 13 14 19 33 38 32 32 24 35 35 31 32 27 26 24 22 21 17 14 10 11 7
7 3 5 8 7 8 7 0 1 4 5 3 3 5 9 9 11 4 12 14 8 7 14 7 18 28 28 32 39 31 32 33 33 33 31 28 26 25 23 19 18 13 14 13
5 4 4 9 7 7 3 6 5 7 4 6 5 4 4 5 9 2 14 13 4 3 6 6 3 21 26 29 28 32 34 35 36 34 32 30 29 27 23 23 22 17 15 13
4 2 4 4 7 5 5 8 8 2 2 5 5 3 3 5 6 5 8 13 13 3 6 4 3 11 19 24 26 35 33 32 35 35 31 34 32 29 25 23 20 20 17 17
3 2 5 7 9 10 9 10 11 8 6 6 4 7 2 5 5 2 6 15 25 4 3 3 3 6 10 12 12 34 38 33 31 34 32 33 33 29 27 23 20 19 18 18
4 3 4 5 8 9 10 9 9 10 8 6 7 6 2 4 8 14 12 25 23 6 4 4 2 4 9 13 27 13 18 31 24 33 34 33 32 31 26 24 18 17 17 17
3 3 3 4 9 11 7 9 8 6 10 7 3 6 9 5 5 11 21 22 7 6 7 6 4 9 6 13 15 10 7 5 13 31 32 32 33 30 26 23 22 20 19 17
1 1 2 2 6 6 6 9 15 11 13 10 8 6 5 6 7 7 6 3 2 4 6 9 12 13 17 21 20 20 17 17 33 33 33 27 27 29 25 22 20 18 16 17
3 4 1 2 3 8 8 6 4 6 7 15 12 7 2 2 2 2 6 4 6 6 5 10 17 17 13 21 21 28 34 46 38 34 34 28 27 26 23 20 16 14 13 11
4 6 5 1 2 4 3 7 6 6 3 9 11 8 9 4 2 4 3 3 3 11 2 9 19 12 5 4 10 15 12 12 4 18 34 30 24 19 16 13 8 8 9 7
2 2 4 5 5 3 4 5 2 1 3 3 7 6 6 4 4 4 2 5 7 7 6 9 12 8 4 6 8 10 23 11 2 22 23 21 18 16 15 16 14 12 11 10
4 5 4 3 5 2 3 5 4 6 3 2 7 6 6 5 3 6 6 5 5 6 9 7 5 11 6 6 9 10 9 12 10 9 21 18 18 15 15 14 14 14 12 10
2 4 4 5 4 5 4 5 4 7 4 2 8 5 7 7 6 3 4 5 4 1 6 4 5 14 9 6 10 13 21 17 16 18 17 12 16 14 15 15 14 16 15 15
4 2 2 6 2 2 2 5 7 7 5 7 8 7 4 5 3 5 6 4 2 3 4 7 10 12 16 15 11 12 15 19 23 25 25 19 17 15 19 20 16 21 19 19
4 8 3 5 6 4 5 4 6 10 15 16 12 8 8 12 9 2 3 3 1 4 6 9 10 11 14 23 21 21 22 25 29 26 25 25 23 20 20 19 16 15 16 14
5 8 3 2 3 4 0 7 10 16 14 12 10 5 6 13 10 11 2 5 4 4 7 9 10 14 17 23 17 13 17 21 25 22 18 19 20 18 17 19 18 14 13 11

GFSCGP_925_spd_150.txt.gz
Wind_Speed
2 4 6 11 6 6 7 6 6 2 5 1 3 5 10 7 4 5 3 5 6 1 7 10 18 34 34 35 34 31 27 22 22 20 20 19 18 20 16 13 12 10 6 7
5 6 13 7 4 10 10 9 4 2 3 2 3 9 8 4 5 6 5 6 7 6 3 7 23 31 36 32 32 34 29 26 23 17 15 15 17 15 17 15 12 10 8 5
6 11 8 6 5 7 3 8 5 6 5 1 4 7 7 4 5 4 7 6 7 8 9 7 18 23 27 31 32 38 30 26 22 21 16 14 14 15 16 17 12 12 11 6
7 12 12 6 5 13 7 11 16 15 5 3 11 4 5 5 6 8 6 10 9 8 6 7 19 22 27 33 33 34 30 26 23 21 18 18 20 22 20 18 14 13 12 7
7 6 4 4 3 7 9 14 19 15 5 4 9 3 6 5 7 12 13 12 11 7 9 10 18 25 25 26 34 34 31 27 25 20 20 20 18 15 12 19 16 15 12 9
6 1 2 5 2 2 2 7 6 5 3 2 5 8 6 2 12 0 11 14 10 8 8 9 20 22 20 26 26 33 32 29 27 23 20 20 18 16 7 20 20 17 14 11
7 6 3 1 5 8 8 7 4 4 4 5 5 2 5 8 12 11 10 14 16 15 11 13 12 18 21 28 29 30 32 30 29 28 23 21 19 16 12 17 18 21 17 15
1 7 8 4 6 7 2 7 6 5 3 4 5 3 4 4 12 13 3 12 15 15 12 14 16 23 25 28 29 30 32 31 29 29 27 24 20 20 17 18 22 19 19 18
4 8 6 4 4 8 2 0 5 7 2 3 5 5 3 6 6 9 11 6 11 14 13 13 18 18 26 26 32 33 34 33 31 31 30 27 24 21 20 20 24 14 15 17
1 3 1 6 2 3 6 3 3 4 3 2 3 4 4 3 6 4 6 5 7 5 9 10 11 17 23 30 34 36 36 37 35 32 31 29 27 25 20 19 17 17 13 11
2 4 8 5 5 4 4 2 7 6 3 4 1 5 3 5 4 8 7 4 3 10 7 9 12 21 25 26 29 36 37 37 36 35 32 31 28 27 25 20 14 19 15 12
3 5 2 6 7 5 4 4 5 5 3 1 3 5 6 6 7 6 4 5 8 8 4 9 19 22 19 25 26 32 33 35 38 38 36 33 32 28 26 26 18 18 18 17
0 2 3 9 8 8 5 6 5 6 3 5 5 4 5 5 5 6 9 5 5 6 6 9 9 18 23 28 29 31 32 34 37 38 36 36 34 33 31 30 25 21 20 19
8 2 6 5 6 4 6 8 3 5 3 4 6 4 7 7 5 4 5 6 4 3 4 2 5 11 22 25 28 32 29 32 33 35 34 35 36 33 31 29 29 25 23 20
5 4 4 6 5 4 2 7 10 3 5 6 8 8 5 7 6 5 4 4 4 3 4 1 1 4 12 20 27 28 27 35 36 34 35 37 37 33 31 29 26 26 26 21
3 1 1 5 7 8 4 8 6 9 6 5 9 2 4 3 5 7 11 8 6 7 5 3 5 5 4 13 26 27 30 32 29 28 32 35 36 34 33 30 26 25 23 22
4 4 3 2 4 6 5 6 3 4 2 4 3 3 4 2 7 6 7 7 7 6 4 5 3 4 7 2 15 25 27 24 27 28 26 33 35 35 34 32 29 25 26 23
6 5 3 3 4 1 7 5 12 13 7 9 9 8 8 8 8 6 7 6 9 8 4 2 5 5 6 6 11 13 16 20 16 15 9 17 32 34 35 30 30 27 24 23
4 5 3 4 3 4 5 4 3 5 5 2 5 5 3 4 1 7 9 9 9 2 3 7 11 9 6 13 9 13 13 12 11 7 9 14 21 34 36 34 30 26 24 24
6 6 5 3 4 4 6 4 2 8 1 4 3 3 5 5 2 5 6 4 4 2 3 9 13 13 9 10 22 18 15 15 21 19 4 15 24 33 35 35 30 25 24 20
3 4 6 3 3 5 5 5 1 4 6 7 6 7 6 5 7 1 3 3 4 3 5 8 8 12 5 10 22 28 28 25 26 23 15 4 17 24 35 27 22 20 17 15
6 6 4 3 2 4 4 1 5 6 4 8 8 8 9 7 8 3 5 1 2 2 5 7 7 7 4 16 24 21 20 22 25 24 17 6 11 13 24 23 21 21 22 19
1 6 5 6 6 7 3 5 3 6 3 5 6 7 9 8 4 4 3 3 2 4 6 4 4 5 5 11 19 22 21 21 15 9 17 16 15 19 13 15 18 18 15 20
1 2 4 4 4 4 6 6 4 6 5 2 3 3 4 5 7 5 3 2 0 3 5 4 8 8 10 15 22 24 24 25 25 23 19 19 23 19 14 13 12 20 18 18
4 3 4 1 5 2 4 6 8 8 8 9 7 4 3 6 4 6 4 2 1 1 4 4 7 8 10 17 22 26 27 28 28 24 19 18 21 21 23 19 16 19 16 16
4 6 4 4 6 6 3 8 9 9 7 8 7 4 4 6 7 7 6 9 7 3 5 7 7 10 15 20 21 19 21 25 29 25 24 25 25 23 24 22 18 16 13 11